Location: Allie Creek
(37.5926°N, 89.8526°W)
Time: 03:50:00
(UTC+00:00)

Meteor 1-27 Rocket - Pass Details

Date: 22 April 2024
Orbit: 829 x 909 km, 81.3° (Epoch: 27 May)

Event Time Altitude Azimuth Distance (km) Brightness Sun altitude
Exits shadow 08:57:14 25° 300° (WNW) 1,687 5.1 -24.7°
Drops below altitude 10° 09:01:06 10° 343° (NNW) 2,491 6.4 -24.1°
Sets 09:03:56 0° 356° (N) 3,418 7.3 -23.7°
